Regional Weather Roundup
Issued by NWS Little Rock, AR

Home | Current Version | Previous Version | Text Only | Print | Product List | Glossary Off
Versions: 1 2 3 4 5 6 7 8 9 10 11 12 13 14 15 16 17 18 19 20 21 22 23 24 25 26 27 28 29 30 31 32 33 34 35 36 37 38 39 40 41 42 43 44 45 46 47 48 49 50

000
ASUS44 KLZK 120605
RWRLZK

WEATHER ROUNDUP FOR ARKANSAS
NATIONAL WEATHER SERVICE LITTLE ROCK AR
1200 AM CST FRI FEB 12 2016

NOTE: "FAIR" INDICATES FEW OR NO CLOUDS BELOW 12,000 FEET WITH NO
SIGNIFICANT WEATHER AND/OR OBSTRUCTIONS TO VISIBILITY.

ARZ001-003-010-029-120700-
NORTHWEST ARKANSAS

CITY           SKY/WX    TMP DP  RH WIND       PRES   REMARKS
FAYETTEVILLE   CLEAR     31  26  82 CALM      30.16S
6HR MIN TEMP:  30; 6HR MAX TEMP:  49;

FORT SMITH     PTCLDY    40  26  57 E7        30.18S
6HR MIN TEMP:  40; 6HR MAX TEMP:  58;

HARRISON       CLEAR     36  22  56 NE3       30.17R
6HR MIN TEMP:  36; 6HR MAX TEMP:  44;

BENTONVILLE    CLEAR     36  25  64 N5        30.19R
6HR MIN TEMP:  34; 6HR MAX TEMP:  48;

ROGERS         CLEAR     37  25  61 N5        30.18R
6HR MIN TEMP:  35; 6HR MAX TEMP:  47;

SILOAM SPGS    CLEAR     36  21  55 N7        30.19R VSB 1
6HR MIN TEMP:  32; 6HR MAX TEMP:  48;

HIGHFILL       CLEAR     35  25  66 NW5       30.18R WCI  31
6HR MIN TEMP:  32; 6HR MAX TEMP:  50;

$$

ARZ004-005-016-120700-
NORTH CENTRAL ARKANSAS

CITY           SKY/WX    TMP DP  RH WIND       PRES   REMARKS
BATESVILLE     CLOUDY    36  23  60 CALM      30.22F
6HR MIN TEMP:  36; 6HR MAX TEMP:  43;

FLIPPIN        PTCLDY    37  19  48 NE5       30.19R
6HR MIN TEMP:  37; 6HR MAX TEMP:  46;

MTN HOME       MOCLDY    35  22  58 E6        30.19R WCI  30
6HR MIN TEMP:  35; 6HR MAX TEMP:  44;

$$

ARZ040-041-120700-
WEST CENTRAL ARKANSAS

CITY           SKY/WX    TMP DP  RH WIND       PRES   REMARKS
MENA           PTCLDY    36  32  87 NW3       30.18S
MOUNT IDA      CLEAR     39  27  62 CALM      30.15F
6HR MIN TEMP:  39; 6HR MAX TEMP:  52;

$$

ARZ009-017-025-026-028-120700-
NORTHEAST ARKANSAS

CITY           SKY/WX    TMP DP  RH WIND       PRES   REMARKS
JONESBORO      CLOUDY    35  26  69 NE9       30.22R WCI  28
6HR MIN TEMP:  34; 6HR MAX TEMP:  39;

NEWPORT        CLOUDY    35  27  73 N7        30.24R WCI  29
6HR MIN TEMP:  34; 6HR MAX TEMP:  40;

WALNUT RIDGE   MOCLDY    36  23  60 NE6       30.23S
6HR MIN TEMP:  36; 6HR MAX TEMP:  39;

BLYTHEVILLE    CLOUDY    37  26  64 E5        30.21R
6HR MIN TEMP:  37; 6HR MAX TEMP:  39;

$$

ARZ022-023-033-042-044-120700-
CENTRAL ARKANSAS

CITY           SKY/WX    TMP DP  RH WIND       PRES   REMARKS
LITTLE ROCK    CLOUDY    39  26  59 NE5       30.21S
6HR MIN TEMP:  39; 6HR MAX TEMP:  46;

N LITTLE ROCK  CLOUDY    39  28  63 NE5       30.21S
6HR MIN TEMP:  39; 6HR MAX TEMP:  45;

JACKSONVILLE   CLOUDY    39  26  58 NE5       30.20S
6HR MIN TEMP:  39; 6HR MAX TEMP:  45;

SEARCY         CLOUDY    37  27  65 N5        30.23R
6HR MIN TEMP:  37; 6HR MAX TEMP:  45;

HOT SPRINGS    PTCLDY    41  25  53 SE5       30.19F
6HR MIN TEMP:  41; 6HR MAX TEMP:  51;

RUSSELLVILLE   PTCLDY    37  24  59 CALM      30.21R
6HR MIN TEMP:  37; 6HR MAX TEMP:  51;

CLINTON        FAIR      36  27  69 CALM      30.21F
$$

ARZ036-120700-
EAST ARKANSAS

CITY           SKY/WX    TMP DP  RH WIND       PRES   REMARKS
WEST MEMPHIS   CLOUDY    39  26  59 E6        30.18F
6HR MIN TEMP:  38; 6HR MAX TEMP:  43;

$$

ARZ050-053-066-070-073-120700-
SOUTHWEST ARKANSAS

CITY           SKY/WX    TMP DP  RH WIND       PRES   REMARKS
ARKADELPHIA    FAIR      40  28  62 NE3       30.22S
6HR MIN TEMP:  40; 6HR MAX TEMP:  52;

CAMDEN         CLEAR     37  28  70 CALM      30.20F
TEXARKANA      CLEAR     44  31  60 NE7       30.18R
6HR MIN TEMP:  44; 6HR MAX TEMP:  62;

EL DORADO      PTCLDY    41  30  65 N5        30.18S
6HR MIN TEMP:  41; 6HR MAX TEMP:  58;

DE QUEEN       CLEAR     43  30  60 E5        30.18R
6HR MIN TEMP:  42; 6HR MAX TEMP:  62;

$$

ARZ056-057-069-120700-
SOUTHEAST ARKANSAS

CITY           SKY/WX    TMP DP  RH WIND       PRES   REMARKS
PINE BLUFF     PTCLDY    37  28  70 N5        30.21S
6HR MIN TEMP:  36; 6HR MAX TEMP:  46;

STUTTGART      PTCLDY    37  27  65 NE5       30.20F
6HR MIN TEMP:  37; 6HR MAX TEMP:  43;

MONTICELLO     PTCLDY    42  28  57 N3        30.18R
6HR MIN TEMP:  42; 6HR MAX TEMP:  52;


$$





USA.gov is the U.S. government's official web portal to all federal, state and local government web resources and services.